Regional Weather Roundup
Issued by NWS Cleveland, OH

Home | Current Version | Previous Version | Text Only | Print | Product List | Glossary On
Versions: 1 2 3 4 5 6 7 8 9 10 11 12 13 14 15 16 17 18 19 20 21 22 23 24 25 26 27 28 29 30 31 32 33 34 35 36 37 38 39 40 41 42 43 44 45 46 47 48 49 50
000
ASUS41 KCLE 262302
RWRCLE
OHIO REGIONAL WEATHER ROUNDUP
NATIONAL WEATHER SERVICE CLEVELAND, OH
700 PM EDT THU MAR 26 2015

NOTE: "FAIR" INDICATES FEW OR NO CLOUDS BELOW 12,000 FEET WITH NO
SIGNIFICANT WEATHER AND/OR OBSTRUCTIONS TO VISIBILITY.

OHZ001>008-015>018-024>027-034-035-043-044-270000-
   NORTHWEST OHIO

CITY           SKY/WX    TMP DP  RH WIND       PRES   REMARKS
DEFIANCE       CLOUDY    41  27  57 NW15      29.91R
FINDLAY        CLOUDY    42  30  62 W12       29.88R
TOLEDO EXPRESS CLOUDY    42  26  53 NW9       29.88R
TOLEDO EXEC    CLOUDY    43  27  53 NW13      29.88S
LIMA           CLOUDY    42  32  67 W13       29.89S
$$

OHZ009>014-019>023-028>033-038-089-270000-
   NORTHEAST OHIO

CITY           SKY/WX    TMP DP  RH WIND       PRES   REMARKS
CLE-HOPKINS    CLOUDY    37  34  89 SW7       29.89R
CLE-LAKEFRONT  CLOUDY    35  33  92 W6        29.87R FOG
CUY CO. ARPT   CLOUDY    37  36  93 W8        29.86R FOG
LORAIN-ELYRIA  CLOUDY    38  33  82 W6        29.87R
ASHTABULA      CLOUDY    35  33  92 W6        29.85R
AKRON-CANTON   CLOUDY    38  33  82 NW10      29.85R
WOOSTER        CLOUDY    37  34  89 NW9       29.86R
MANSFIELD      CLOUDY    38  35  89 W6        29.86R
YOUNGSTOWN     CLOUDY    36  34  92 NW7       29.84R
$$

OHZ042-051>053-060>062-070>072-077>081-270000-
  SOUTHWEST OHIO

CITY           SKY/WX    TMP DP  RH WIND       PRES   REMARKS
CINC-COVINGTON CLOUDY    42  34  73 NW5       29.92R
CINC-LUNKEN    CLOUDY    43  36  76 N7        29.93S
HAMILTON       CLOUDY    43  35  73 NW7       29.93R
DAYTON         CLOUDY    41  34  76 NW8       29.91S
WRIGHT-PAT AFB CLOUDY    41  34  75 NW6G20    29.91R
DAYTON GENERAL CLOUDY    41  34  76 NW7       29.91R
WILMINGTON     CLOUDY    41  34  76 NW12      29.90R
$$

OHZ036-037-039>041-045>050-054>059-063>069-073>076-082>088-270000-
  CENTRAL AND SOUTHEAST OHIO

CITY           SKY/WX    TMP DP  RH WIND       PRES   REMARKS
COLUMBUS       LGT RAIN  41  35  79 NW8       29.89R
OSU AIRPORT    CLOUDY    40  33  76 NW9       29.90R
BOLTON FIELD   CLOUDY    41  36  81 W8        29.90
RICKENBACK AFB NOT AVBL
NEWARK         CLOUDY    42  35  76 NW10      29.88R
MARION         CLOUDY    40  33  76 NW7       29.88S
LANCASTER      CLOUDY    42  38  85 NW12      29.89R
ZANESVILLE     CLOUDY    43  38  82 NW13      29.86R
NEW PHILLY     CLOUDY    43  37  79 NW10      29.87R
$$



USA.gov is the U.S. government's official web portal to all federal, state and local government web resources and services.